Weather History for KORE - March, 2012

Change the Weather History Date:

Monday, March 26, 2012

  Actual Average Record
Temperature  
Mean Temperature 37 °F -  
Max Temperature 45 °F 44 °F 69 °F (2004)
Min Temperature 28 °F 25 °F 12 °F (2001)
Degree Days  
Heating Degree Days 28    
Moisture  
Dew Point 26 °F    
Average Humidity 66    
Maximum Humidity 100    
Minimum Humidity 27    
Precipitation  
Precipitation 0.01 in - - ()
Sea Level Pressure  
Sea Level Pressure 29.77 in    
Wind  
Wind Speed 7 mph (NNW)    
Max Wind Speed 28 mph    
Max Gust Speed 39 mph    
Visibility 9 miles    
Events Rain    
Averages and records for this station are not official NWS values.
T = Trace of Precipitation, MM = Missing Value Source: NWS Daily Summary

Daily Weather History Graph

Daily Weather History Graph

Search for Another Location

Airport or City:

Trip Planner

Search our weather history database for the weather conditions in past years. The results will help you decide how hot, cold, wet, or windy it might be!

Date:

Astronomy

Mar. 26, 2012 Rise Set
Actual Time 6:41 AM EDT 7:08 PM EDT
Civil Twilight 6:12 AM EDT 7:37 PM EDT
Nautical Twilight 5:39 AM EDT 8:10 PM EDT
Astronomical Twilight 5:05 AM EDT 8:44 PM EDT
Moon 8:22 AM EDT (3/26) 11:22 PM EDT (3/26)
Length of Visible Light 13h 24m
Length of Day
12h 27m
Waxing Crescent, 14% of the Moon is Illuminated
Mar 26
Waxing Crescent
Mar 30
First Quarter
Apr 6
Full
Apr 13
Last Quarter
Apr 21
New

Hourly Weather History & Observations

Time (EDT) Temp. Windchill Dew Point Humidity Pressure Visibility Wind Dir Wind Speed Gust Speed Precip Events Conditions
12:15 AM 39.2 °F - 37.4 °F 93% 29.72 in 9.0 mi Calm Calm - N/A   Mostly Cloudy
12:52 AM 41.0 °F - 39.9 °F 96% 29.72 in 9.0 mi Calm Calm - N/A   Overcast
1:52 AM 41.0 °F - 39.0 °F 93% 29.70 in 9.0 mi Calm Calm - N/A   Mostly Cloudy
2:28 AM 39.2 °F - 39.2 °F 100% 29.67 in 8.0 mi Calm Calm - N/A   Mostly Cloudy
2:52 AM 39.9 °F 37.8 °F 39.0 °F 97% 29.68 in 9.0 mi SSW 3.5 mph - N/A   Overcast
3:21 AM 41.0 °F - 39.2 °F 93% 29.65 in 8.0 mi Calm Calm - N/A   Overcast
3:52 AM 41.0 °F - 39.0 °F 93% 29.65 in 8.0 mi Calm Calm - N/A   Overcast
4:02 AM 39.2 °F - 39.2 °F 100% 29.64 in 7.0 mi Calm Calm - N/A   Overcast
4:12 AM 41.0 °F - 39.2 °F 93% 29.64 in 7.0 mi Calm Calm - N/A   Overcast
4:52 AM 41.0 °F 39.0 °F 39.9 °F 96% 29.64 in 8.0 mi South 3.5 mph - N/A   Overcast
5:00 AM 41.0 °F - 39.2 °F 93% 29.63 in 8.0 mi Calm Calm - N/A   Overcast
5:35 AM 41.0 °F - 39.2 °F 93% 29.63 in 8.0 mi Calm Calm - N/A   Mostly Cloudy
5:52 AM 39.9 °F - 39.9 °F 100% 29.64 in 7.0 mi Calm Calm - N/A   Mostly Cloudy
6:52 AM 37.0 °F 34.5 °F 37.0 °F 100% 29.64 in 4.0 mi SW 3.5 mph - N/A   Scattered Clouds
7:42 AM 42.8 °F 36.6 °F 41.0 °F 93% 29.67 in 7.0 mi NNW 11.5 mph 17.3 mph N/A   Overcast
7:52 AM 44.1 °F 37.1 °F 39.0 °F 82% 29.70 in 6.0 mi North 15.0 mph 29.9 mph 0.00 in Rain Light Rain
8:34 AM 42.8 °F 34.8 °F 33.8 °F 70% 29.72 in 10.0 mi NNW 17.3 mph 24.2 mph 0.01 in   Overcast
8:52 AM 41.0 °F 33.5 °F 30.0 °F 65% 29.76 in 10.0 mi NNW 13.8 mph 26.5 mph 0.01 in   Overcast
9:52 AM 39.9 °F 29.5 °F 25.0 °F 55% 29.78 in 10.0 mi NW 24.2 mph 33.4 mph N/A   Partly Cloudy
10:52 AM 39.9 °F 30.5 °F 18.0 °F 41% 29.81 in 10.0 mi WNW 19.6 mph 32.2 mph N/A   Clear
12:52 PM 39.9 °F 30.2 °F 12.0 °F 32% 29.82 in 10.0 mi North 20.7 mph 34.5 mph N/A   Clear
1:52 PM 39.9 °F 30.0 °F 10.9 °F 31% 29.81 in 10.0 mi NNW 21.9 mph 35.7 mph N/A   Partly Cloudy
2:52 PM 39.9 °F 28.8 °F 9.0 °F 28% 29.83 in 10.0 mi NW 27.6 mph 39.1 mph N/A   Partly Cloudy
3:52 PM 39.9 °F 29.7 °F 8.1 °F 27% 29.83 in 10.0 mi NNW 23.0 mph 39.1 mph N/A   Clear
4:52 PM 39.0 °F 29.3 °F 8.1 °F 28% 29.85 in 10.0 mi North 19.6 mph 36.8 mph N/A   Scattered Clouds
5:52 PM 36.0 °F 24.7 °F 9.0 °F 33% 29.89 in 10.0 mi North 21.9 mph 38.0 mph N/A   Scattered Clouds
6:52 PM 33.1 °F 21.5 °F 9.0 °F 37% 29.93 in 10.0 mi North 19.6 mph 33.4 mph N/A   Mostly Cloudy
7:52 PM 32.0 °F 21.2 °F 6.1 °F 34% 29.96 in 10.0 mi NNW 16.1 mph 32.2 mph N/A   Clear
8:52 PM 30.0 °F 16.9 °F 6.1 °F 36% 30.00 in 10.0 mi NNW 21.9 mph 27.6 mph N/A   Clear
9:52 PM 30.0 °F 18.3 °F 3.9 °F 33% 30.02 in 10.0 mi NW 17.3 mph 27.6 mph N/A   Clear
10:52 PM 30.0 °F 17.5 °F 1.9 °F 30% 30.04 in 10.0 mi NNW 19.6 mph 25.3 mph N/A   Clear
11:52 PM 28.9 °F 16.5 °F 1.0 °F 30% 30.05 in 10.0 mi NNW 18.4 mph 28.8 mph N/A   Clear